Home > Weather > Borås > Past weeks

Flag for Sweden Past Weather in Borås, Sweden — Yesterday and Last 2 Weeks

Now
57 °F

Sprinkles. Fog.


Feels Like: 55 °F
Forecast: 52 / 62 °F
Wind: 8 mph from Southeast

Location: Gothenburg / Landvetter

Current Time: Jun 29, 2016 at 4:40:22 PM

Latest Report: Jun 29, 2016 at 4:20 PM


Visibility: 6 mi

Pressure: 29.80 "Hg

Humidity: 88%

Dew Point: 54 °F

Location of BoråsLocation

Past Weather in Borås — Graph

°F

Borås Temperature Yesterday

Maximum temperature yesterday: 63 °F (at 4:20 PM)
Minimum temperature yesterday: 50 °F (at 11:20 PM)
Average temperature yesterday: 57 °F

High & Low Weather Summary for the Past Weeks

 TemperatureHumidityPressure
High73 °F (Jun 24, 12:50 PM)100% (Jun 17, 2:20 AM)30.24 "Hg (Jun 17, 2:20 AM)
Low46 °F (Jun 20, 1:20 AM)49% (Jun 14, 4:50 PM)29.53 "Hg (Jun 15, 5:20 AM)
Average59 °F83%29.86 "Hg
* Reported Jun 14 3:20 PM — Jun 29 3:20 PM, Borås, Weather by CustomWeather, © 2016

Note: Actual official high and low records may vary slightly from our data, if they occured in-between our weather recording intervals... More about our weather records

Advertising

Borås Weather History for the Previous 24 Hours

Scroll right to see more
 ConditionsComfort  
Time TempWeatherWind HumidityBarometerVisibility
3:20 PM
Wed, Jun 29
59 °FRain showers. Partly sunny.7 mph82%29.80 "Hg6 mi
2:50 PM59 °FRain showers. Broken clouds.12 mph77%29.80 "Hg4 mi
2:20 PM63 °FRain showers. Cloudy.9 mph59%29.80 "HgN/A
1:50 PM63 °FBroken clouds.12 mph59%29.80 "HgN/A
1:20 PM63 °FScattered clouds.10 mph59%29.80 "HgN/A
12:50 PM64 °FCloudy.7 mph56%29.83 "HgN/A
12:20 PM63 °FOvercast.9 mph56%29.83 "HgN/A
11:50 AM63 °FScattered clouds.9 mph56%29.83 "HgN/A
11:20 AM63 °FScattered clouds.13 mph59%29.83 "HgN/A
10:20 AM63 °FScattered clouds.9 mph59%29.86 "HgN/A
9:50 AM63 °FPassing clouds.9 mph64%29.86 "HgN/A
9:20 AM61 °FSunny.9 mph63%29.86 "Hg10 mi
8:50 AM59 °FSunny.10 mph72%29.86 "Hg10 mi
8:20 AM57 °FSunny.9 mph77%29.89 "Hg10 mi
7:50 AM55 °FSunny.9 mph82%29.89 "Hg10 mi
7:20 AM55 °FSunny.8 mph82%29.89 "Hg10 mi
6:50 AM54 °FSunny.8 mph82%29.89 "Hg10 mi
6:20 AM52 °FSunny.6 mph88%29.89 "Hg10 mi
5:20 AM50 °FSunny.8 mph94%29.89 "Hg10 mi
4:50 AM50 °FClear.7 mph94%29.92 "Hg10 mi
4:20 AM50 °FClear.8 mph94%29.92 "Hg10 mi
3:50 AM50 °FClear.8 mph94%29.92 "Hg10 mi
3:20 AM50 °FClear.7 mph94%29.92 "Hg10 mi
2:50 AM50 °FClear.7 mph94%29.92 "Hg10 mi
2:20 AM50 °FClear.6 mph88%29.92 "Hg10 mi
1:50 AM48 °FClear.5 mph94%29.92 "Hg10 mi
1:20 AM50 °FClear.6 mph88%29.95 "Hg10 mi
12:20 AM50 °FClear.5 mph88%29.95 "Hg10 mi
11:20 PM
Tue, Jun 28
50 °FClear.5 mph94%29.95 "Hg10 mi
10:50 PM52 °FSunny.6 mph88%29.95 "Hg10 mi
10:20 PM52 °FSunny.6 mph82%29.95 "Hg10 mi
9:50 PM55 °FSunny.6 mph72%29.95 "Hg10 mi
9:20 PM57 °FSunny.8 mph67%29.95 "Hg10 mi
8:50 PM57 °FPassing clouds.8 mph67%29.95 "HgN/A
8:20 PM57 °FPassing clouds.7 mph72%29.95 "HgN/A
7:50 PM59 °FPassing clouds.7 mph63%29.95 "HgN/A
7:20 PM59 °FPassing clouds.10 mph63%29.95 "HgN/A
6:50 PM59 °FScattered clouds.12 mph63%29.95 "HgN/A
6:20 PM61 °FScattered clouds.13 mph63%29.95 "HgN/A
5:50 PM61 °FPartly sunny.10 mph63%29.95 "HgN/A
5:20 PM61 °FScattered clouds.14 mph59%29.95 "HgN/A
4:50 PM61 °FScattered clouds.14 mph59%29.95 "HgN/A
4:20 PM63 °FOvercast.13 mph52%29.95 "HgN/A
Weather by CustomWeather, © 2016

See weather overviewHow to use our weather pages